Regional Weather Roundup
Issued by NWS

Home | Current Version | Previous Version | Text Only | Print | Product List | Glossary Off
Versions: 1 2 3 4 5 6 7 8 9 10 11 12 13 14 15 16 17 18 19 20 21 22 23 24 25 26 27 28 29 30 31 32 33 34 35 36 37 38 39 40 41 42 43 44 45 46 47 48 49 50

000
ASUS43 KLOT 262303
RWRIL

ILLINOIS REGIONAL WEATHER ROUNDUP
NATIONAL WEATHER SERVICE CHICAGO/ROMEOVILLE IL
600 PM CDT THU MAY 26 2016

NOTE: "FAIR" INDICATES FEW OR NO CLOUDS BELOW 12,000 FEET WITH NO
SIGNIFICANT WEATHER AND/OR OBSTRUCTIONS TO VISIBILITY.

* THESE STATIONS ARE NOT UNDER NWS QUALITY CONTROL. THEY ALSO MAY NOT
  REPORT WEATHER SUCH AS PRECIPITATION OR FOG.

ILZ001-002-007-009-015-016-024-270000-
NORTHWEST ILLINOIS

CITY           SKY/WX    TMP DP  RH WIND       PRES   REMARKS
MOLINE         CLOUDY    85  62  46 S6        29.81R HX  85
STERLING*      CLOUDY    84  63  49 W7        29.82R HX  85
$$

ILZ003-004-008-010-011-017-018-270000-
NORTH CENTRAL ILLINOIS

CITY           SKY/WX    TMP DP  RH WIND       PRES   REMARKS
ROCKFORD       CLOUDY    83  62  49 SW7       29.84R HX  84
FREEPORT*      CLOUDY    81  62  51 W3        29.84R HX  82
ROCHELLE*      CLOUDY    82  67  62 S5        29.83R HX  84
$$

ILZ005-006-012>014-019>023-270000-
NORTHEAST ILLINOIS

CITY           SKY/WX    TMP DP  RH WIND       PRES   REMARKS
CHICAGO-OHARE  PTSUNNY   82  64  54 SW6       29.81F HX  83
CHICAGO-MIDWAY PTSUNNY   85  62  46 S9        29.81F HX  85
AURORA         MOSUNNY   83  66  56 S5        29.82F HX  85
LANSING*       SUNNY     82  62  49 SW9       29.83F HX  83
WAUKEGAN       MOSUNNY   81  63  54 SW7       29.81F HX  82
DUPAGE AIRPORT SUNNY     83  63  50 SW5       29.82F HX  84
WHEELING       SUNNY     83  61  47 SW8       29.82F HX  83
MORRIS*        SUNNY     87  58  38 W5        29.80S HX  86
NORTHERLY ISL    N/A     83  59  44 SW2         N/A  HX  83
NORTHERLY ISL    N/A     83  59  44 SW2         N/A  HX  83
$$

LMZ740>746-270000-
SOUTHERN LAKE MICHIGAN

STATION/POSITION SKY/WX   TEMP    WIND        PRES    VSBY  WAVE
                          AIR SEA DIR/SP/G                  HT/PER
                          (F)     (DEG/KT/KT) (MB)    (MI)  (FT/S)
SOUTHERN BUOY              58 50  160/  8/  8 1010.6          1
WILMETTE HARBOR            65 57  110/  6/  8   N/A           1
HARRISON CRIB              81     220/ 13/ 13   N/A
BURNHAM HARBOR             83     190/  3/ 13   N/A
CALUMET HARBOR                    210/  6/ 13 1010.2F
BURNS HARBOR               79     220/  8/ 12 1011.5S
MICHIGAN CITY              76     320/  2/  3   N/A
MICHIGAN CITY 6N           71 62  130/  2/  4   N/A           1
ST. JOSEPH                 65 63  360/  2/  2   N/A           1
$$

ILZ025>027-034>036-040-047-049-050-058-095>099-270000-
WEST-CENTRAL ILLINOIS

CITY           SKY/WX    TMP DP  RH WIND       PRES   REMARKS
QUINCY         CLOUDY    82  66  58 S9        29.81F HX  84
MACOMB*        CLOUDY    82  65  56 S6        29.84S HX  84
PITTSFIELD*    MOSUNNY   82  69  66 S9        29.85R HX  85
$$

ILZ028>032-037-038-041>044-048-051>054-059>061-270000-
CENTRAL ILLINOIS

CITY           SKY/WX    TMP DP  RH WIND       PRES   REMARKS
BLOOMINGTON    MOSUNNY   83  69  62 S15       29.86F HX  86
DECATUR        PTSUNNY   81  66  60 S13       29.86F HX  83
PEORIA         SUNNY     84  66  54 S10       29.81F HX  86
LINCOLN*       MOSUNNY   81  71  71 S13       29.85R HX  85
SPRINGFIELD    MOSUNNY   81  68  64 S14       29.84F HX  84
TAYLORVILLE    NOT AVBL
$$

ILZ033-039-045-046-055>057-062-063-270000-
EAST-CENTRAL ILLINOIS

CITY           SKY/WX    TMP DP  RH WIND       PRES   REMARKS
CHAMPAIGN      CLOUDY    79  66  64 S14       29.87F HX  81
MATTOON        PTSUNNY   73  65  75 S9        29.88F
$$

ILZ079-100>102-270000-
SOUTHWEST ILLINOIS

CITY           SKY/WX    TMP DP  RH WIND       PRES   REMARKS
ALTON          MOSUNNY   77  64  65 S9        29.88F
CAHOKIA*       SUNNY     79  64  60 S8        29.87F HX  81
SPARTA*        SUNNY     73  65  74 S6        29.90F
$$

ILZ064>066-069>071-074>076-080>082-084>086-088>090-092>094-270000-
SOUTH-CENTRAL ILLINOIS

CITY           SKY/WX    TMP DP  RH WIND       PRES   REMARKS
CARBONDALE     CLOUDY    74  65  73 NW5       29.87F
CAIRO*         CLOUDY    71  66  83 SE6       29.91F
EFFINGHAM*     CLOUDY    73  67  80 S6        29.91F
MARION         PTSUNNY   73  66  78 N9        29.88S
MT. VERNON     CLOUDY    73  63  68 S9        29.89F
SALEM*         CLOUDY    74  65  72 S5        29.89F
$$

ILZ067-068-072-073-078-083-087-091-270000-
SOUTHEAST ILLINOIS

CITY           SKY/WX    TMP DP  RH WIND       PRES   REMARKS
LAWRENCEVILLE  CLOUDY    72  66  81 SE12      29.92F
FLORA*         PTSUNNY   74  66  76 SE6       29.90F
HARRISBURG*    CLOUDY    72  65  77 SE17G29   29.86F
ROBINSON*      PTSUNNY   71  66  84 S9        29.92F
$$

ABBREVIATIONS USED IN REMARKS
   TC - TEMPERATURE IN CELSIUS
  WCI - WIND CHILL INDEX
   HX - HEAT INDEX
  VSB - VISIBILITY
$$





USA.gov is the U.S. government's official web portal to all federal, state and local government web resources and services.